DW9227 Weather Reports


time (UTC)temp
F
wind
direction
speed
knots
gust
knots
rain 1hr
in
rain 24hr
in
rain mn
in
humidity
%
barometer
mb
20260507231515 57 128 0.0 0.0 0.00 0.00 0.00 79 1015.4
20260507230005 57 128 0.0 0.0 0.00 0.00 0.00 79 1015.3
20260507224504 57 128 0.0 0.0 0.00 0.00 0.00 78 1015.3
20260507223002 58 128 0.0 0.0 0.00 0.00 0.00 77 1015.3
20260507221603 57 128 0.0 0.0 0.00 0.00 0.00 78 1015.3
20260507220059 57 128 0.0 0.0 0.00 0.00 0.00 78 1015.3
20260507214557 58 128 0.0 0.0 0.00 0.00 0.00 77 1015.2
20260507213105 58 128 0.0 0.0 0.00 0.00 0.00 75 1015.0
20260507211559 59 128 0.0 0.0 0.00 0.00 0.00 74 1014.9
20260507210054 59 128 0.0 0.0 0.00 0.00 0.00 73 1014.9
20260507204600 60 128 0.0 0.0 0.00 0.00 0.00 72 1014.8
20260507203055 60 128 0.0 0.0 0.00 0.00 0.00 70 1014.6
20260507201602 60 128 0.0 0.0 0.00 0.00 0.00 70 1014.6
20260507200055 60 128 0.0 0.0 0.00 0.00 0.00 71 1014.6
20260507194559 61 128 0.0 0.0 0.00 0.00 0.00 70 1014.4
20260507193051 61 128 0.0 0.0 0.00 0.00 0.00 68 1014.0
20260507191610 62 128 0.0 0.0 0.00 0.00 0.00 66 1013.6
20260507190050 63 128 0.0 0.0 0.00 0.00 0.00 63 1013.4
20260507184557 64 128 0.0 0.0 0.00 0.00 0.00 62 1013.2
20260507183049 64 128 0.0 0.0 0.00 0.00 0.00 60 1013.1
20260507181548 65 128 0.0 0.0 0.00 0.00 0.00 59 1012.9
20260507180048 66 128 0.0 0.0 0.00 0.00 0.00 57 1012.8
20260507174547 66 129 0.0 7.0 0.00 0.00 0.00 58 1012.6
20260507173046 67 113 0.0 3.5 0.00 0.00 0.00 56 1012.5
20260507171550 67 84 0.0 5.2 0.00 0.00 0.00 55 1012.5
20260507170047 68 76 0.0 7.8 0.00 0.00 0.00 55 1012.4
20260507164557 68 136 0.0 5.2 0.00 0.00 0.00 55 1012.2
20260507163043 68 157 0.0 7.0 0.00 0.00 0.00 55 1012.1
20260507161547 68 136 0.9 7.8 0.00 0.00 0.00 55 1012.0
20260507160047 68 150 0.9 7.0 0.00 0.00 0.00 55 1012.0
20260507154541 69 97 0.9 7.8 0.00 0.00 0.00 55 1012.1
20260507153040 69 137 1.7 7.8 0.00 0.00 0.00 55 1012.0
20260507151540 69 128 0.9 11.3 0.00 0.00 0.00 56 1012.1
20260507150039 69 129 1.7 7.8 0.00 0.00 0.00 55 1012.2
20260507144538 69 149 1.7 8.7 0.00 0.01 0.00 56 1012.3
20260507143055 69 143 0.9 11.3 0.00 0.01 0.00 55 1012.3
20260507141553 69 141 0.0 12.2 0.00 0.01 0.00 57 1012.4
20260507140036 69 136 1.7 8.7 0.00 0.01 0.00 57 1012.4
20260507134534 69 99 0.0 9.6 0.00 0.01 0.00 56 1012.6
20260507133035 68 123 0.0 11.3 0.00 0.01 0.00 58 1012.8
20260507131538 68 119 1.7 8.7 0.00 0.01 0.00 57 1012.8
20260507130039 68 65 0.9 9.6 0.00 0.01 0.00 57 1012.9
20260507124528 68 138 0.9 12.2 0.00 0.01 0.00 57 1013.1
20260507123027 68 146 1.7 9.6 0.00 0.01 0.00 58 1013.0
20260507121527 68 93 0.0 8.7 0.00 0.01 0.00 58 1013.2
20260507120025 67 126 1.7 14.8 0.00 0.01 0.00 58 1013.4
20260507114528 67 132 1.7 7.8 0.00 0.02 0.00 60 1013.4
20260507113024 67 128 0.0 8.7 0.00 0.02 0.00 60 1013.5
20260507111523 67 94 1.7 7.8 0.00 0.02 0.00 59 1013.6
20260507110022 67 43 0.9 8.7 0.00 0.02 0.00 61 1013.8
20260507104522 67 105 0.9 9.6 0.00 0.02 0.00 61 1013.9
20260507103018 66 134 1.7 10.4 0.00 0.02 0.00 60 1014.0
20260507101518 66 138 0.9 7.0 0.00 0.02 0.00 62 1014.2
20260507100016 66 103 0.9 8.7 0.00 0.02 0.00 62 1014.4
20260507094515 65 111 0.0 7.0 0.00 0.03 0.00 63 1014.5
20260507093013 65 63 0.0 7.0 0.00 0.03 0.00 61 1014.5
20260507091514 64 69 0.9 5.2 0.00 0.03 0.00 61 1014.4
20260507090008 63 250 0.0 3.5 0.00 0.03 0.00 66 1014.5
20260507084505 62 258 0.0 3.5 0.00 0.25 0.00 64 1014.5
20260507083102 61 263 0.0 2.6 0.00 0.25 0.00 62 1014.5
20260507081602 60 263 0.0 0.0 0.00 0.25 0.00 60 1014.6
20260507080104 58 263 0.0 0.0 0.00 0.25 0.00 62 1014.7
20260507074551 56 263 0.0 0.9 0.00 0.56 0.00 63 1014.7
20260507073050 56 263 0.0 0.9 0.00 0.56 0.00 63 1014.7
20260507071546 55 263 0.0 0.9 0.00 0.56 0.00 67 1014.8
20260507070044 53 263 0.0 0.0 0.00 0.56 0.00 71 1014.7
20260507064600 52 263 0.0 1.7 0.00 0.72 0.00 77 1014.8
20260507063037 50 263 0.0 0.0 0.00 0.72 0.00 79 1014.8
20260507061535 49 263 0.0 0.0 0.00 0.72 0.00 81 1014.8
20260507060033 48 263 0.0 0.0 0.00 0.72 0.00 81 1014.7
20260507054532 47 263 0.0 0.0 0.00 0.91 0.00 84 1014.8
20260507053031 47 263 0.0 0.0 0.00 0.91 0.00 85 1014.5
20260507051529 47 263 0.0 0.0 0.00 0.91 0.00 85 1014.3
20260507050038 47 263 0.0 0.9 0.00 0.91 0.00 84 1014.2
20260507044526 47 263 0.0 3.5 0.00 0.99 0.00 84 1014.0
20260507043024 46 263 0.0 0.0 0.00 0.99 0.00 86 1013.7
20260507041526 47 263 0.0 0.0 0.00 0.99 0.00 87 1013.5
20260507040019 47 263 0.0 0.0 0.00 0.99 0.00 87 1013.5
20260507034519 47 263 0.0 0.0 0.00 0.99 0.00 87 1013.4
20260507033020 47 263 0.0 0.0 0.00 0.99 0.00 86 1013.4
20260507031516 47 263 0.0 0.0 0.00 0.99 0.00 86 1013.4
20260507030024 48 263 0.0 0.0 0.00 0.99 0.00 84 1013.4
20260507024517 48 263 0.0 0.0 0.00 0.99 0.00 83 1013.3
20260507023011 48 263 0.0 0.0 0.00 0.99 0.00 84 1013.3
20260507021511 48 263 0.0 0.0 0.00 0.99 0.00 86 1013.4
20260507020009 48 263 0.0 0.0 0.00 0.99 0.00 86 1013.4
20260507014511 48 263 0.0 0.0 0.00 0.99 0.00 85 1013.2
20260507013011 49 263 0.0 0.0 0.00 0.99 0.00 85 1013.1
20260507011505 49 263 0.0 0.0 0.00 0.99 0.00 86 1013.0
20260507010004 49 263 0.0 0.0 0.00 0.99 0.00 85 1013.0
20260507004501 49 263 0.0 0.0 0.00 0.99 0.00 85 1012.9
20260507003059 49 263 0.0 0.0 0.00 0.99 0.00 85 1012.9
20260507001608 49 263 0.0 0.0 0.00 0.99 0.00 86 1012.8
20260507000056 49 263 0.0 0.0 0.00 0.99 0.00 86 1012.5
20260506234559 50 263 0.0 0.0 0.00 0.99 0.00 87 1012.3
20260506233055 50 263 0.0 0.0 0.00 0.99 0.00 87 1012.3